EW9119 Weather Reports


time (UTC)temp
C
wind
direction
speed
KPH
gust
KPH
rain 1hr
cm
rain 24hr
cm
rain mn
cm
humidity
%
barometer
mb
20260902003013 28 302 0.0 0.0 0.00 0.00 0.00 66 1013.8
20260902001510 29 302 0.0 0.0 0.00 0.00 0.00 63 1013.8
20260902000007 30 304 0.0 0.0 0.00 0.00 0.00 61 1013.8
20260901234608 30 304 0.0 0.0 0.00 0.00 0.00 60 1013.8
20260901233055 31 304 0.0 0.0 0.00 0.00 0.00 58 1013.7
20260901231557 32 304 0.0 0.0 0.00 0.00 0.00 55 1014.0
20260901224543 32 304 0.0 0.0 0.00 0.00 0.00 53 1014.1
20260901223038 33 304 0.0 0.0 0.00 0.00 0.00 50 1014.1
20260901221535 33 304 0.0 0.0 0.00 0.00 0.00 47 1014.1
20260901220029 33 292 0.0 0.0 0.00 0.00 0.00 47 1014.1
20260901214525 33 308 0.0 0.0 0.00 0.00 0.00 47 1014.1
20260901213026 33 275 0.0 0.0 0.00 0.00 0.00 46 1014.1
20260901211516 33 323 0.0 0.0 0.00 0.00 0.00 48 1014.0
20260901210014 33 341 0.0 0.0 0.00 0.00 0.00 45 1014.2
20260901204512 33 288 0.0 0.0 0.00 0.00 0.00 45 1014.4
20260901203005 33 167 0.0 0.0 0.00 0.00 0.00 45 1014.4
20260901201558 33 286 0.0 0.0 0.00 0.00 0.00 45 1014.4
20260901200054 34 270 0.0 0.0 0.00 0.00 0.00 44 1014.5
20260901194554 34 286 0.0 0.0 0.00 0.00 0.00 44 1014.5
20260901193045 34 333 0.0 0.0 0.00 0.00 0.00 44 1014.6
20260901191543 33 331 0.0 0.0 0.00 0.00 0.00 44 1014.9
20260901190039 34 299 0.0 0.0 0.00 0.00 0.00 43 1015.0
20260901184532 33 257 0.0 0.0 0.00 0.00 0.00 44 1015.0
20260901183047 33 323 0.0 0.0 0.00 0.00 0.00 44 1015.1
20260901181523 33 20 0.0 0.0 0.00 0.00 0.00 45 1015.2
20260901180021 33 300 0.0 0.0 0.00 0.00 0.00 46 1015.3
20260901174514 34 317 0.0 0.0 0.00 0.00 0.00 45 1015.5
20260901173010 33 271 0.0 0.0 0.00 0.00 0.00 46 1015.5
20260901171506 34 355 0.0 0.0 0.00 0.00 0.00 46 1015.6
20260901170001 33 316 0.0 0.0 0.00 0.00 0.00 47 1015.7
20260901164557 33 282 0.0 0.0 0.00 0.00 0.00 47 1016.0
20260901163110 33 302 0.0 0.0 0.00 0.00 0.00 48 1016.2
20260901161604 33 316 0.0 0.0 0.00 0.00 0.00 48 1016.3
20260901160054 32 313 0.0 0.0 0.00 0.00 0.00 52 1016.4
20260901154547 32 301 0.0 0.0 0.00 0.00 0.00 54 1016.6
20260901153040 32 323 0.0 0.0 0.00 0.00 0.00 55 1016.8
20260901151549 32 300 0.0 0.0 0.00 0.00 0.00 56 1017.0
20260901150032 31 346 0.0 0.0 0.00 0.00 0.00 58 1017.0
20260901144527 31 318 0.0 0.0 0.00 0.00 0.00 63 1017.2
20260901143022 30 317 0.0 0.0 0.00 0.00 0.00 62 1017.3
20260901141528 29 360 0.0 0.0 0.00 0.00 0.00 63 1017.3
20260901140013 28 323 0.0 0.0 0.00 0.00 0.00 68 1017.2
20260901134511 28 322 0.0 0.0 0.00 0.00 0.00 68 1017.3
20260901133004 27 311 0.0 0.0 0.00 0.00 0.00 68 1017.3
20260901131600 26 120 0.0 0.0 0.00 0.00 0.00 65 1017.3
20260901130059 26 142 0.0 0.0 0.00 0.00 0.00 60 1017.4
20260901124551 25 142 0.0 0.0 0.00 0.00 0.00 36 1017.5
20260901123047 23 142 0.0 0.0 0.00 0.00 0.00 1 1017.4
20260901121543 22 142 0.0 0.0 0.00 0.00 0.00 1 1017.2
20260901120041 21 142 0.0 0.0 0.00 0.00 0.00 1 1017.1
20260901114535 21 142 0.0 0.0 0.00 0.00 0.00 1 1017.0
20260901113033 21 142 0.0 0.0 0.00 0.00 0.00 1 1016.8
20260901111526 21 142 0.0 0.0 0.00 0.00 0.00 1 1016.6
20260901110023 21 142 0.0 0.0 0.00 0.00 0.00 1 1016.6
20260901104525 21 142 0.0 0.0 0.00 0.00 0.00 1 1016.4
20260901103021 21 142 0.0 0.0 0.00 0.00 0.00 1 1016.4
20260901101519 21 142 0.0 0.0 0.00 0.00 0.00 1 1016.2
20260901100015 21 142 0.0 0.0 0.00 0.00 0.00 1 1016.3
20260901094511 21 142 0.0 0.0 0.00 0.00 0.00 1 1016.2
20260901093006 21 142 0.0 0.0 0.00 0.00 0.00 1 1016.2
20260901091501 21 142 0.0 0.0 0.00 0.00 0.00 1 1016.2
20260901084621 21 142 0.0 0.0 0.00 0.00 0.00 1 1016.0
20260901083049 21 142 0.0 0.0 0.00 0.00 0.00 1 1016.0
20260901081545 21 142 0.0 0.0 0.00 0.00 0.00 1 1016.1
20260901080055 21 142 0.0 0.0 0.00 0.00 0.00 1 1016.2
20260901074536 21 142 0.0 0.0 0.00 0.00 0.00 1 1016.2
20260901073043 22 142 0.0 0.0 0.00 0.00 0.00 1 1016.5
20260901071528 22 142 0.0 0.0 0.00 0.00 0.00 1 1016.5
20260901070023 22 142 0.0 0.0 0.00 0.00 0.00 1 1016.6
20260901064519 22 142 0.0 0.0 0.00 0.00 0.00 1 1016.6
20260901063020 22 142 0.0 0.0 0.00 0.00 0.00 1 1016.7
20260901061510 22 142 0.0 0.0 0.00 0.00 0.00 1 1016.6
20260901060017 22 142 0.0 0.0 0.00 0.00 0.00 1 1016.6
20260901054502 22 142 0.0 0.0 0.00 0.00 0.00 1 1016.8
20260901053105 22 142 0.0 0.0 0.00 0.00 0.00 1 1016.7
20260901051557 22 142 0.0 0.0 0.00 0.00 0.00 2 1016.9
20260901050049 23 142 0.0 0.0 0.00 0.00 0.00 8 1016.7
20260901044552 23 142 0.0 0.0 0.00 0.00 0.00 18 1016.6
20260901043042 23 142 0.0 0.0 0.00 0.00 0.00 27 1016.5
20260901041553 23 142 0.0 0.0 0.00 0.00 0.00 33 1016.5
20260901040049 23 142 0.0 0.0 0.00 0.00 0.00 38 1016.5
20260901034533 23 142 0.0 0.0 0.00 0.00 0.00 41 1016.5
20260901033028 23 142 0.0 0.0 0.00 0.00 0.00 50 1016.4
20260901031526 23 142 0.0 0.0 0.00 0.00 0.00 52 1016.5
20260901030019 23 142 0.0 0.0 0.00 0.00 0.00 53 1016.6
20260901024515 24 142 0.0 0.0 0.00 0.00 0.00 54 1016.5
20260901023010 24 142 0.0 0.0 0.00 0.00 0.00 56 1016.5
20260901021510 25 142 0.0 0.0 0.00 0.00 0.00 60 1016.4
20260901020002 25 142 0.0 0.0 0.00 0.00 0.00 64 1016.4
20260901014558 25 142 0.0 0.0 0.00 0.00 0.00 67 1016.2
20260901013058 25 142 0.0 0.0 0.00 0.00 0.00 68 1016.1
20260901011549 26 142 0.0 0.0 0.00 0.00 0.00 69 1015.8
20260901010054 26 142 0.0 0.0 0.00 0.00 0.00 70 1015.6
20260901004544 26 142 0.0 0.0 0.00 0.00 0.00 70 1015.5